Location: Peterborough
(44.3091°N, 78.3197°W)
Time: 10:51:14
(UTC-04:00)

A-11 Canister half - Pass Details

Date: 20 September 2024
Orbit: 1515 x 1684 km, 47.2° (Epoch: 02 October)

Event Time Altitude Azimuth Distance (km) Brightness Sun altitude
Rises 01:02:31 0° 294° (WNW) 4,668 11.8 -44.8°
Reaches altitude 10° 01:05:42 10° 288° (WNW) 3,679 11.1 -44.8°
Enters shadow 01:07:24 17° 284° (WNW) 3,182 10.7 -44.8°
